West Palm Beach, FL

9:30 AM EDT on April 22, 2018 (GMT -0400)
Palm Beach International

Weather History for KPBI - October, 2012

Change the Weather History Date:

Friday, October 5, 2012

  Actual Average Record
Temperature  
Mean Temperature 86 °F 80 °F  
Max Temperature 89 °F 87 °F 92 °F (1964)
Min Temperature 82 °F 74 °F 63 °F (1897)
Degree Days  
Heating Degree Days 0 0  
Month to date heating degree days 0 0  
Since 1 July heating degree days 0 0  
Cooling Degree Days 21 15  
Month to date cooling degree days 94 77  
Year to date cooling degree days 3511 3285  
Growing Degree Days 36 (Base 50)    
Moisture  
Dew Point 75 °F    
Average Humidity 74    
Maximum Humidity 85    
Minimum Humidity 63    
Precipitation  
Precipitation T in 0.20 in 7.10 in (1948)
Month to date precipitation 1.78 1.02  
Year to date precipitation 69.18 50.09  
Snow  
Snow 0.00 in - - ()
Month to date snowfall 0.0  
Since 1 July snowfall 0.0  
Since 1 September snowfall 0.0  
Snow Depth 0.00 in    
Sea Level Pressure  
Sea Level Pressure 30.02 in    
Wind  
Wind Speed 8 mph (East)    
Max Wind Speed 14 mph    
Max Gust Speed 16 mph    
Visibility 10 miles    
Events Rain    
T = Trace of Precipitation, MM = Missing Value Source: NWS Daily Summary

Daily Weather History Graph

Daily Weather History Graph

Search for Another Location

Airport or City:

Astronomy

Oct. 05, 2012 Rise Set
Actual Time 7:15 AM EDT 7:01 PM EDT
Civil Twilight 6:51 AM EDT 7:25 PM EDT
Nautical Twilight 6:24 AM EDT 7:51 PM EDT
Astronomical Twilight 5:58 AM EDT 8:18 PM EDT
Moon 10:49 PM EDT (10/5) 11:55 AM EDT (10/5)
Length of Visible Light 12h 33m
Length of Day
11h 46m
Waning Gibbous, 74% of the Moon is Illuminated
Oct 5
Waning Gibbous
Oct 8
Last Quarter
Oct 15
New
Oct 21
First Quarter
Oct 29
Full

Hourly Weather History & Observations

Time (EDT) Temp. Heat Index Dew Point Humidity Pressure Visibility Wind Dir Wind Speed Gust Speed Precip Events Conditions
12:53 AM 82.9 °F 90.2 °F 75.0 °F 77% 30.09 in 10.0 mi ENE 5.8 mph - N/A   Scattered Clouds
1:53 AM 82.9 °F 91.8 °F 77.0 °F 82% 30.07 in 10.0 mi East 8.1 mph - N/A   Scattered Clouds
2:53 AM 82.9 °F 90.8 °F 75.9 °F 79% 30.05 in 10.0 mi East 6.9 mph - N/A   Scattered Clouds
3:53 AM 82.9 °F 90.8 °F 75.9 °F 79% 30.04 in 10.0 mi East 6.9 mph - N/A   Scattered Clouds
4:53 AM 82.0 °F 89.4 °F 75.9 °F 82% 30.04 in 10.0 mi East 6.9 mph - N/A   Scattered Clouds
5:53 AM 82.0 °F 88.6 °F 75.0 °F 79% 30.04 in 10.0 mi East 8.1 mph - N/A   Scattered Clouds
6:53 AM 82.0 °F 88.6 °F 75.0 °F 79% 30.04 in 10.0 mi East 5.8 mph - N/A   Scattered Clouds
7:50 AM 82.4 °F 89.5 °F 75.2 °F 79% 30.04 in 10.0 mi East 10.4 mph - 0.00 in Rain Light Rain
7:53 AM 82.0 °F 88.6 °F 75.0 °F 79% 30.04 in 10.0 mi SE 10.4 mph - 0.00 in Rain Light Rain
8:47 AM 82.4 °F 89.5 °F 75.2 °F 79% 30.04 in 10.0 mi ESE 5.8 mph - 0.00 in   Scattered Clouds
8:53 AM 82.9 °F 90.8 °F 75.9 °F 79% 30.04 in 10.0 mi ESE 5.8 mph - 0.00 in   Scattered Clouds
9:53 AM 86.0 °F 96.0 °F 75.9 °F 72% 30.05 in 10.0 mi ESE 9.2 mph - N/A   Mostly Cloudy
10:53 AM 87.1 °F 96.3 °F 75.0 °F 67% 30.05 in 10.0 mi SE 10.4 mph - N/A   Scattered Clouds
11:53 AM 87.1 °F 95.4 °F 73.9 °F 65% 30.04 in 10.0 mi ESE 11.5 mph - N/A   Mostly Cloudy
12:53 PM 88.0 °F 95.6 °F 73.0 °F 61% 30.02 in 10.0 mi ESE 10.4 mph - N/A   Mostly Cloudy
1:53 PM 88.0 °F 97.5 °F 75.0 °F 65% 30.01 in 10.0 mi ESE 9.2 mph - N/A   Mostly Cloudy
2:53 PM 87.1 °F 95.4 °F 73.9 °F 65% 29.97 in 10.0 mi ESE 8.1 mph - N/A   Mostly Cloudy
3:53 PM 87.1 °F 94.5 °F 73.0 °F 63% 29.94 in 10.0 mi East 10.4 mph - N/A   Scattered Clouds
4:53 PM 86.0 °F 93.8 °F 73.9 °F 67% 29.94 in 10.0 mi ESE 13.8 mph - N/A   Mostly Cloudy
5:53 PM 84.9 °F 91.4 °F 73.0 °F 67% 29.96 in 10.0 mi East 9.2 mph - N/A   Mostly Cloudy
6:53 PM 84.0 °F 91.2 °F 73.9 °F 72% 29.95 in 10.0 mi ENE 11.5 mph - N/A   Mostly Cloudy
7:53 PM 84.0 °F 91.2 °F 73.9 °F 72% 29.96 in 10.0 mi ENE 8.1 mph - N/A   Mostly Cloudy
8:53 PM 82.9 °F 90.8 °F 75.9 °F 79% 29.98 in 10.0 mi ENE 6.9 mph - 0.00 in   Mostly Cloudy
9:53 PM 82.9 °F 90.2 °F 75.0 °F 77% 29.99 in 10.0 mi East 9.2 mph - N/A   Mostly Cloudy
10:53 PM 82.9 °F 89.4 °F 73.9 °F 74% 29.99 in 10.0 mi ENE 8.1 mph - N/A   Mostly Cloudy
11:53 PM 82.9 °F 89.4 °F 73.9 °F 74% 29.99 in 10.0 mi ENE 6.9 mph - N/A   Scattered Clouds